Regional Weather Roundup
Issued by NWS Boston, MA

Current Version | Previous Version | Text Only | Print | Product List | Glossary On
Versions: 1 2 3 4 5 6 7 8 9 10 11 12 13 14 15 16 17 18 19 20 21 22 23 24 25 26 27 28 29 30 31 32 33 34 35 36 37 38 39 40 41 42 43 44 45 46 47 48 49 50
000
ASUS41 KBOX 230410
RWRBOX

REGIONAL WEATHER ROUNDUP
NATIONAL WEATHER SERVICE TAUNTON MA
1200 AM EDT TUE SEP 23 2014

NOTE:  "FAIR" INDICATES FEW OR NO CLOUDS BELOW 12,000 FEET WITH NO
SIGNIFICANT WEATHER AND/OR OBSTRUCTIONS TO VISIBILITY.  THE FOLLOWING
OBSERVATION LOCATIONS DO NOT REPORT PRESENT WEATHER...PROVINCETOWN...
SMITHFIELD...BLOCK ISLAND...KEENE...AND OXFORD.

MAZALL-230500-
EASTERN MASSACHUSETTS

CITY           SKY/WX    TMP DP  RH WIND       PRES   REMARKS
BOSTON         CLEAR     54  38  54 NW8       30.09R
BEVERLY        CLEAR     49  36  61 NW5       30.08R
LAWRENCE       CLEAR     50  38  63 W3        30.10R
BEDFORD        CLEAR     45  40  82 CALM      30.08R
BLUE HILL        N/A     48  38  68 NW7       30.08R
NORWOOD        CLEAR     44  38  79 CALM      30.09R
MARSHFIELD     NOT AVBL
PLYMOUTH       CLEAR     51  37  58 NW6       30.09R
TAUNTON        CLEAR     50  39  66 W6        30.10R
NEW BEDFORD    CLEAR     51  39  63 VRB3      30.09R
$$

MAZALL-230500-
CAPE COD AND THE ISLANDS

CITY           SKY/WX    TMP DP  RH WIND       PRES   REMARKS
FALMOUTH       CLEAR     54  39  58 NW8G15    30.08R
HYANNIS        CLEAR     56  40  55 NW15      30.06R
CHATHAM        CLEAR     56  42  59 NW9G18    30.07R
PROVINCETOWN   CLEAR     55  39  54 NW21G28   30.08R
NANTUCKET      CLEAR     58  42  55 NW18      30.07R
MARTHAS VNYRD  CLEAR     54  39  57 NW16G24   30.08R
$$

MAZALL-230500-
CENTRAL AND WESTERN MASSACHUSETTS

CITY           SKY/WX    TMP DP  RH WIND       PRES   REMARKS
WORCESTER      CLEAR     47  38  71 NW6       30.09R
FITCHBURG      CLEAR     45  39  79 CALM      30.10R
ORANGE         CLEAR     42  40  92 CALM      30.11R
SPRINGFIELD    CLEAR     41  38  89 N1        30.11R
WESTFIELD      CLEAR     52  39  61 NW12G21   30.11S
NORTH ADAMS    CLOUDY    50  40  68 W6        30.15R
PITTSFIELD     CLOUDY    46  40  79 N3        30.14R
$$

RIZALL-230500-
RHODE ISLAND

CITY           SKY/WX    TMP DP  RH WIND       PRES   REMARKS
PROVIDENCE     CLEAR     50  39  66 W5        30.11R
NEWPORT        CLEAR     54  40  59 NW8       30.11R
BLOCK ISLAND   CLEAR     54  37  54 N12G18    30.12R
WESTERLY       CLEAR     52  39  61 CALM      30.13R
$$

CTZALL-230500-
CONNECTICUT

CITY           SKY/WX    TMP DP  RH WIND       PRES   REMARKS
BRADLEY INTL   CLEAR     50  39  66 N5        30.12R
HARTFORD       CLEAR     53  38  56 W5        30.13S
BRIDGEPORT     CLEAR     54  41  61 SW3       30.16R
DANBURY        CLEAR     45  40  82 SW3       30.16S
GROTON         CLEAR     51  39  63 NW8       30.12R
NEW HAVEN      CLEAR     55  40  56 NW3       30.15R
CHESTER        FAIR      50  39  66 CALM      30.14R
MERIDEN        CLEAR     44  41  89 CALM      30.14R
WILLIMANTIC    CLEAR     48  40  73 W3        30.12R
OXFORD         CLEAR     46  36  66 CALM      30.15S
$$

MEZ002-015-021-024-NHZ003-005-008-011-012-014-VTZ005-008-230500-
NORTHERN NEW ENGLAND

CITY           SKY/WX    TMP DP  RH WIND       PRES   REMARKS
PORTLAND ME    CLEAR     49  35  58 NW8       30.05R
BANGOR ME      PTCLDY    50  36  58 NW6       29.97R
CONCORD NH     CLEAR     45  36  70 CALM      30.08R
MANCHESTER NH  CLEAR     51  36  56 W5        30.07R
NASHUA NH      CLEAR     48  39  71 NW3       30.09S
PORTSMOUTH NH  CLEAR     50  38  62 W7        30.06R
JAFFREY NH     CLEAR     44  38  79 SE5       30.09R
KEENE NH       CLEAR     41  32  70 S3        30.11R
BURLINGTON VT  PTCLDY    51  36  56 W7        30.13R
MT. WASHINGTON SNOWSHWR  25  25 100 NW58G67     N/A  VSB 1/16WCI   3
$$

NYZ052-076-230500-
EASTERN NEW YORK

CITY           SKY/WX    TMP DP  RH WIND       PRES   REMARKS
ALBANY         PTCLDY    48  41  76 CALM      30.16R
NEW YORK CITY  PTCLDY    57  41  55 NW14G22   30.16R
$$

ANZALL-230500-
MARINE OBSERVATIONS

STATION/POSITION TIME  TEMP    WIND        PRES    VSBY  WAVE
                       AIR SEA DIR/SP/G                  HT/PER
                 (UTC) (F)     (DEG/KT/KT) (MB)    (MI)  (FT/S)
BOSTON BUOY      0350   56 60  320/ 19/ 27 1018.2R         4/ 4
BUZZARDS BAY     0300          320/ 29/ 33 1019.2R
NANTUCKET SOUND  0350   58 67  310/ 19/ 23 1017.9R         3/ 4
MASS BAY-STELLWA 0304   57 61  310/ 16/ 21   N/A    1 7/8  3/ 4
ISLE OF SHOALS   0400   54     300/ 16/ 17 1017.5R
S OF BLOCK IS    0308      67                N/A           7/10
$$

......................KEY.........................
  SKY/WX - SKY CONDITION/PRESENT WEATHER
  TMP    - TEMPERATURE IN FAHRENHEIT
  DWPT   - DEWPOINT IN FAHRENHEIT
  RH     - RELATIVE HUMIDITY IN PERCENT
  WIND   - DIRECTION AND SPEED IN MPH
  PRES   - MEAN SEA LEVEL PRESSURE IN INCHES OF HG
  WCI    - WIND CHILL INDEX
  VSB    - VISIBILITY IN MILES
  HX     - HEAT INDEX
  TC     - TEMPERATURE IN CELSIUS
  VRB    - VARIABLE WIND DIRECTION
  N/A    - NOT AVAILABLE



USA.gov is the U.S. government's official web portal to all federal, state and local government web resources and services.